Terug naar catalogus

FENGYUN 1C DEB

ActiefSSO
NORAD 30979·DEBRIS·🇨🇳 China

Gelanceerd May 10, 1999 vanaf Taiyuan Satellite Launch Center

Loading…

Volgende Passages (komende 24 uur)

TLE

VersSource: Space-Track

Epoch: Sep 14, 2026, 15:54 UTC

1 30979U 99025BBV 26257.66259279  .00007016  00000-0  64875-3 0  9998
2 30979  97.8026 154.6029 0180557  61.8502 329.5623 14.83230409 32073

Volg FENGYUN 1C DEB in realtime met AllMySat

Download on the App Store